Temp
56 58 57 56 56 57 57 57 57 59 60 60 61 61 61 62 62 60 59 58 58 61
56 56 56 56 55 53 53 56 57 59 59 60 61 61 61 61 59 60 59 58 58 59
56 57 57 53 53 54 57 58 58 58 59 60 60 61 60 60 59 58 60 60 58 58
57 58 58 58 58 58 58 58 58 58 59 60 60 60 59 59 58 57 58 58 58 57
58 58 59 58 59 59 59 59 58 59 59 59 59 59 59 58 58 57 57 57 58 57
57 58 58 58 59 60 59 59 59 59 58 58 57 58 59 59 59 58 58 57 57 57
57 58 59 59 59 60 60 59 59 59 58 58 59 59 59 60 60 60 60 59 58 58
57 59 59 59 59 59 60 59 59 58 59 58 59 57 57 60 59 59 58 59 60 59
58 59 58 58 58 58 59 59 59 58 57 57 59 47 48 52 58 58 57 57 58 59
57 58 57 58 58 57 57 57 57 57 57 56 57 46 46 48 58 57 57 56 57 58
57 57 57 58 56 56 56 56 56 56 56 57 58 46 45 46 58 59 57 57 57 57
57 56 56 56 55 55 57 57 56 56 56 56 57 46 44 49 59 59 58 59 58 56
57 57 56 55 54 55 56 56 58 56 56 52 56 48 44 48 61 58 59 59 58 50
59 57 56 55 55 55 55 56 55 56 57 57 55 55 44 43 59 59 59 59 58 59
MSLP
1024.37 1023.96 1023.63 1023.38 1022.98 1022.52 1022.11 1021.77 1021.58 1021.17 1020.83 1020.50 1020.16 1019.82 1019.51 1019.15 1018.97 1018.88 1018.57 1018.37 1018.07 1017.50
1024.44 1024.19 1023.93 1023.66 1023.41 1023.10 1022.81 1022.18 1021.69 1021.32 1020.98 1020.67 1020.39 1020.11 1019.70 1019.55 1019.37 1019.16 1019.03 1018.83 1018.57 1018.05
1024.64 1024.44 1024.19 1024.05 1023.64 1023.18 1022.68 1022.24 1021.92 1021.63 1021.30 1020.96 1020.67 1020.39 1020.11 1019.86 1019.86 1019.60 1019.33 1019.03 1018.78 1018.42
1024.75 1024.58 1024.28 1024.02 1023.62 1023.29 1022.99 1022.74 1022.40 1022.13 1021.70 1021.34 1021.05 1020.86 1020.58 1020.36 1020.22 1019.93 1019.67 1019.40 1019.01 1018.67
1024.87 1024.63 1024.31 1024.08 1023.80 1023.51 1023.23 1022.99 1022.72 1022.36 1021.98 1021.67 1021.43 1021.21 1020.99 1020.74 1020.55 1020.21 1019.84 1019.54 1019.15 1018.76
1024.93 1024.67 1024.39 1024.13 1023.91 1023.59 1023.34 1023.09 1022.86 1022.55 1022.26 1021.94 1021.67 1021.39 1021.19 1020.90 1020.57 1020.28 1020.00 1019.69 1019.29 1018.85
1024.94 1024.72 1024.47 1024.18 1023.95 1023.65 1023.39 1023.22 1023.06 1022.80 1022.51 1022.18 1021.78 1021.57 1021.31 1021.01 1020.64 1020.20 1019.78 1019.50 1019.18 1018.77
1025.01 1024.71 1024.47 1024.16 1023.90 1023.65 1023.41 1023.33 1023.19 1022.97 1022.65 1022.34 1022.03 1022.25 1021.99 1021.27 1020.74 1020.30 1019.77 1019.30 1018.97 1018.72
1024.93 1024.64 1024.44 1024.18 1023.88 1023.60 1023.48 1023.47 1023.36 1023.12 1022.92 1022.73 1022.53 1022.84 1022.47 1021.94 1021.01 1020.44 1020.01 1019.54 1019.10 1018.79
1024.86 1024.57 1024.41 1024.21 1023.97 1023.84 1023.74 1023.66 1023.60 1023.46 1023.21 1022.98 1022.94 1022.96 1022.66 1022.10 1021.22 1020.71 1020.28 1019.91 1019.54 1019.09
1024.86 1024.59 1024.43 1024.28 1024.24 1024.08 1023.91 1023.76 1023.69 1023.53 1023.33 1023.10 1022.95 1023.11 1022.79 1022.23 1021.48 1020.88 1020.52 1020.25 1019.93 1019.51
1024.89 1024.66 1024.55 1024.42 1024.39 1024.21 1023.93 1023.73 1023.65 1023.56 1023.35 1023.16 1022.93 1023.11 1023.03 1022.57 1021.49 1020.91 1020.47 1020.25 1020.05 1019.91
1024.88 1024.81 1024.68 1024.63 1024.44 1024.32 1024.07 1023.90 1023.70 1023.55 1023.44 1023.32 1023.04 1023.09 1023.24 1022.77 1021.71 1021.03 1020.54 1020.13 1019.95 1019.79
1024.73 1024.70 1024.69 1024.56 1024.47 1024.32 1024.10 1023.88 1023.71 1023.51 1023.27 1023.09 1023.10 1022.97 1023.24 1022.92 1022.05 1021.31 1020.58 1020.10 1019.89 1019.67
Wind_Speed
9 6 6 8 7 7 7 7 9 7 7 7 7 7 7 6 7 8 7 10 9 6
8 9 8 9 8 6 7 6 9 7 7 7 8 9 8 8 8 8 8 8 8 7
7 7 7 7 8 9 9 9 9 9 8 8 9 9 9 8 8 7 6 6 9 8
7 7 6 7 8 9 9 9 9 8 7 7 8 8 8 9 9 9 8 8 9 9
6 6 6 7 8 8 8 8 9 8 8 7 6 6 7 8 8 8 8 8 9 9
6 6 6 6 6 6 7 8 9 9 9 8 8 6 5 6 7 7 6 7 8 8
6 6 6 5 4 5 5 6 8 9 8 8 8 8 7 6 7 9 9 8 8 9
6 6 6 6 5 5 4 5 7 9 8 10 9 9 11 9 9 9 11 11 10 9
5 6 6 7 7 5 4 5 6 9 9 8 6 12 14 12 9 10 10 10 10 10
6 6 6 6 8 7 5 4 5 7 8 8 8 13 14 15 7 8 9 9 10 10
5 6 5 6 7 7 5 4 4 6 6 7 7 11 13 16 7 6 8 9 9 10
5 6 6 6 6 6 5 5 5 6 6 7 8 11 13 12 7 9 9 8 8 11
5 5 6 5 6 5 5 5 5 5 4 4 7 8 11 10 6 8 8 9 11 7
2 2 3 4 4 4 4 4 4 4 4 5 5 7 7 8 6 6 7 8 9 9
Wind_Direction
11 11 14 19 9 13 4 3 0 359 5 12 25 25 25 34 26 29 30 25 19 12
15 22 24 22 20 14 14 3 24 26 30 33 34 41 43 41 30 31 31 33 29 19
35 30 30 25 23 20 19 19 23 25 28 40 46 41 29 28 27 22 24 20 14 8
37 37 44 32 27 21 24 21 26 26 33 35 37 32 35 36 34 38 34 26 23 21
45 46 38 26 22 20 26 27 23 22 23 12 3 15 29 37 36 34 28 21 13 13
39 25 22 27 22 21 25 30 25 20 17 9 6 0 13 17 18 13 5 358 351 347
16 6 354 2 9 7 22 26 20 16 16 14 15 18 5 360 353 350 347 340 335 331
360 1 2 4 344 329 349 14 16 17 21 21 24 20 1 355 347 343 340 338 342 336
358 360 7 5 358 347 355 13 18 24 16 13 14 2 2 351 339 339 334 330 336 337
354 355 357 6 11 12 11 14 30 20 14 13 4 357 348 345 334 335 344 347 348 344
1 356 359 15 14 19 19 25 15 7 4 355 359 349 346 341 355 3 10 6 2 354
3 14 19 19 13 23 18 22 6 353 344 346 350 5 349 336 353 5 8 8 12 7
32 35 39 29 28 13 2 0 344 342 328 334 343 359 343 347 345 4 354 356 359 47
46 29 31 37 23 13 10 17 3 327 311 319 331 330 338 342 336 350 347 356 356 357